Location: Austin
(30.3000°N, 97.7500°W)
Time: 22:51:20
(UTC-05:00)

CZ-2D R/B - Pass Details

Date: 06 May 2026
Orbit: 523 x 594 km, 98.0° (Epoch: 13 May)

Event Time Altitude Azimuth Distance (km) Brightness Sun altitude
Rises 20:37:34 0° 174° (S) 2,672 6.5 -5.9°
Reaches altitude 10° 20:39:42 10° 177° (S) 1,776 5.7 -6.3°
Maximum altitude 20:43:29 62° 259° (W) 594 3.8 -7.1°
Drops below altitude 10° 20:47:15 10° 341° (NNW) 1,766 6.6 -7.8°
Sets 20:49:22 0° 344° (NNW) 2,656 7.5 -8.2°
